Location: Namasale
(1.5000°N, 32.6167°E)
Time: 20:42:33
(UTC+00:00)

SR - Pass Details

Date: 15 April 2021
Orbit: 573 x 882 km, 66.7° (Epoch: 13 May)

Event Time Altitude Azimuth Distance (km) Brightness Sun altitude
Rises 16:11:03 0° 354° (N) 3,285 ? -5.0°
Reaches altitude 10° 16:13:43 10° 2° (N) 2,309 ? -5.7°
Maximum altitude 16:18:33 37° 69° (ENE) 1,119 ? -6.9°
Drops below altitude 10° 16:23:01 10° 136° (SE) 2,126 ? -8.0°
Enters shadow 16:24:56 - 143° (SE) 2,826 ? -8.5°
